This demonstration page uses our WeatherBlox Daily Observations layout. Learn more.

Left ArrowRight Arrow

38.20091, -84.87328

Hourly Observations for August 2, 2021

Temp ( °F °C ) Dew Point ( °F °C ) Humidity (%) Winds ( mph kmh ) Pressure ( in mb ) Visibility ( mi km ) Precip ( " mm )
12:53 am 00:53 Cloudy 70 21.1 62 16.7 76 76 N 3 6 30.03 1017 8 13 0.00 0.00
1:53 am 01:53 Clear 67 19.4 60 15.6 79 79 NNW 5 7 30.04 1017 9 14 0.00 0.00
2:53 am 02:53 Clear 65 18.3 59 15 81 81 NNW 6 9 30.04 1017 9 14 0.00 0.00
3:53 am 03:53 Clear 63 17.2 58 14.4 84 84 N 3 6 30.04 1017 8 13 0.00 0.00
4:53 am 04:53 Clear 61 16.1 58 14.4 90 90 Calm 30.06 1018 8 13 0.00 0.00
5:53 am 05:53 Clear 59 15 57 13.9 93 93 NW 3 6 30.06 1018 8 13 0.00 0.00
6:53 am 06:53 Sunny with Mist and Fog 58 14.4 56 13.3 93 93 Calm 30.07 1018 6 10 0.00 0.00
7:53 am 07:53 Sunny 61 16.1 57 13.9 87 87 Calm 30.09 1019 7 11 0.00 0.00
8:53 am 08:53 Sunny 66 18.9 58 14.4 75 75 NNE 6 9 30.10 1019 7 11 0.00 0.00
9:53 am 09:53 Sunny 70 21.1 59 15 68 68 NE 5 7 30.10 1019 7 11 0.00 0.00
10:53 am 10:53 Sunny 74 23.3 60 15.6 62 62 E 7 11 30.10 1019 7 11 0.00 0.00
11:53 am 11:53 Mostly Sunny 77 25 60 15.6 56 56 E 6 9 30.10 1019 7 11 0.00 0.00
12:53 pm 12:53 Mostly Cloudy 79 26.1 57 13.9 47 47 VRB 6 9 30.09 1019 7 11 0.00 0.00
1:53 pm 13:53 Partly Cloudy 80 26.7 56 13.3 44 44 N 8 13 30.08 1019 7 11 0.00 0.00
2:53 pm 14:53 Mostly Sunny 82 27.8 54 12.2 38 38 VRB 5 7 30.06 1018 9 14 0.00 0.00
3:53 pm 15:53 Mostly Sunny 80 26.7 52 11.1 38 38 Calm 30.05 1018 9 14 0.00 0.00
4:53 pm 16:53 Mostly Cloudy 81 27.2 56 13.3 42 42 N 7 11 30.04 1017 9 14 0.00 0.00
5:53 pm 17:53 Mostly Sunny 82 27.8 55 12.8 40 40 NE 8 13 30.03 1017 9 14 0.00 0.00
6:53 pm 18:53 Sunny 80 26.7 55 12.8 42 42 NNE 7 11 30.03 1017 10 16 0.00 0.00
7:53 pm 19:53 Sunny 77 25 57 13.9 50 50 NE 7 11 30.03 1017 10 16 0.00 0.00
8:53 pm 20:53 Mostly Clear 74 23.3 57 13.9 56 56 NE 5 7 30.04 1017 10 16 0.00 0.00
9:53 pm 21:53 Clear 72 22.2 58 14.4 61 61 NE 5 7 30.05 1018 10 16 0.00 0.00
10:53 pm 22:53 Clear 70 21.1 59 15 68 68 NE 3 6 30.06 1018 10 16 0.00 0.00
11:53 pm 23:53 Clear 67 19.4 58 14.4 73 73 ENE 5 7 30.06 1018 10 16 0.00 0.00

Powered by AerisWeather